[[{"header":{"parameterUnit":"m.s-1","parameterCategory":1,"la1":30.2991,"la2":30.254,"lo1":-89.0895,"lo2":-89.0444,"dy":0.0017,"dx":0.0017,"nx":28,"ny":28,"refTime":"2023-03-31T21:00:00:Z","depth":0,"parameterNumber":2,"parameterNumberName":"U-component_of_WINDS"},"data":[0,0,0,0,0,0,0,0,0,0,0,0,0,0,0,0,0,0,0,0,0,0,0,0,0,0,0,0,0,0,0,0,0,0,0,0,0,0,0,0,0,0,0,0,0,0,0,0,0,0,0,0,0,0,0,0,0,0,2.9536,2.9537,0,2.9572,2.9573,2.9573,2.9566,2.9566,2.9565,2.9565,2.9603,2.9605,2.9606,0,0,0,0,0,0,0,0,0,0,0,0,0,2.9467,2.9469,2.9536,2.9537,2.9537,2.9572,2.9573,2.9573,2.9567,2.9566,2.9565,2.9564,2.9603,2.9605,2.9607,0,0,0,0,0,0,0,0,0,0,0,0,0,2.95,2.9469,2.9536,2.9538,2.9539,2.9572,2.9573,2.9573,2.9567,2.9566,2.9565,2.9564,2.9602,2.9604,2.9607,2.9641,0,0,2.9614,2.9615,0,0,0,0,0,0,0,0,2.9498,2.9502,2.9537,2.9538,2.9539,2.9564,2.9563,2.9596,2.9567,2.9556,2.9565,2.9563,2.9591,2.9594,2.9603,2.9643,2.9645,2.9615,2.9616,2.9617,2.9618,0,0,0,0,0,0,0,2.9496,2.9501,2.9551,2.9538,2.9539,2.9539,2.9542,2.9569,2.9579,2.9557,2.9557,2.9561,2.9591,2.9601,2.9604,2.9645,2.9614,2.9617,2.9618,2.9619,2.9721,2.9722,0,0,0,0,0,0,2.9492,2.9499,2.955,2.9552,2.9516,2.9541,2.9545,2.9557,2.9578,2.9581,2.9562,2.956,2.9597,2.9601,2.9605,2.965,2.9617,2.9619,2.9621,2.972,2.9721,2.9723,0,0,0,0,0,0,2.9491,2.9497,2.9548,2.9525,2.9532,2.9543,2.9557,2.9558,2.9568,2.9582,2.9584,2.9569,2.9597,2.9602,2.9634,2.9652,2.962,2.9623,2.9718,2.972,2.9722,2.9738,0,0,0,0,0,0,2.9489,2.9496,2.9508,2.9526,2.9533,2.9574,2.9558,2.9559,2.9572,2.957,2.959,2.9592,2.9596,2.963,2.9636,2.9654,2.9625,2.9717,2.9719,2.9721,2.9736,2.9741,2.9744,0,0,0,0,0,2.9487,2.9511,2.9509,2.9515,2.9548,2.9575,2.9579,2.9583,2.9573,2.9586,2.9596,2.9591,2.9649,2.9633,2.964,2.9659,2.9716,2.9718,2.9721,2.9735,2.974,2.9744,0,0,0,0,0,0,2.9494,2.9513,2.9511,2.9541,2.9557,2.9574,2.959,2.9588,2.9607,2.9605,2.961,2.9614,2.9647,2.9656,2.9639,2.9697,2.9681,2.9685,2.9689,2.9694,2.9698,2.9695,2.9627,0,0,0,0,0,2.95,2.9519,2.9535,2.956,2.9568,2.9578,2.959,2.9592,2.9608,2.9615,2.9627,2.9644,2.9666,2.9681,2.9702,2.9738,2.9744,2.9755,2.9759,2.9763,2.9766,2.9791,2.9797,2.9732,2.9732,2.9732,0,0,2.9511,2.9523,2.9535,2.9562,2.9574,2.9596,2.9583,2.9606,2.9623,2.9618,2.9649,2.9659,2.9679,2.9714,2.9731,2.9723,2.9786,2.9766,2.9768,2.9771,2.9794,2.98,2.9806,2.9734,2.9733,2.9733,0,0,2.9542,2.9552,2.9576,2.959,2.9609,2.9616,2.9622,2.9641,2.9647,2.9678,2.9677,2.9698,2.9735,2.9751,2.9764,2.9807,2.9805,2.9814,2.9834,2.9858,2.9863,2.9868,2.9886,2.9892,2.9817,2.9817,2.9817,0,2.9553,2.9585,2.9589,2.9613,2.9627,2.9625,2.9651,2.9664,2.9689,2.97,2.9691,2.9741,2.9754,2.9795,2.9806,2.9815,2.9825,2.9811,2.9862,2.9867,2.9871,2.9889,2.9895,2.9819,2.9818,2.9818,2.9818,0,2.96,2.9622,2.9639,2.9665,2.968,2.9705,2.9716,2.9731,2.9734,2.9743,2.9777,2.9793,2.982,2.983,2.9831,2.9872,2.9868,2.986,2.9845,2.9878,2.9895,2.9901,2.982,2.982,2.9819,2.9819,0,0,2.9634,2.9664,2.9671,2.9684,2.9707,2.9726,2.9753,2.9779,2.9793,2.9812,2.9837,2.9871,2.9866,2.9881,2.9885,2.9905,2.9943,2.9897,2.9897,2.9907,2.9993,2.9999,3.0006,2.9942,2.9943,2.9944,2.9993,0,2.9669,2.9715,2.9722,2.9763,2.9786,2.9787,2.9811,2.983,2.984,2.9863,2.9875,2.99,2.989,2.99,2.992,2.9934,2.9961,2.993,2.9967,2.9968,2.9963,3.0015,3.002,3.0064,2.9999,3.0,3.0001,0,2.9715,2.9736,2.978,2.9805,2.9814,2.9835,2.9862,2.9883,2.9906,2.9912,2.9931,2.9934,2.9965,2.9949,2.9994,2.9974,2.999,2.9999,3.0001,3.0005,2.9986,3.0022,3.0078,3.0086,3.001,3.001,3.0009,0,2.9739,2.9778,2.9811,2.9822,2.985,2.9866,2.9879,2.99,2.9917,2.9941,2.9953,2.998,2.9996,3.0018,3.003,3.0017,3.0076,3.0059,3.0084,3.0084,3.0096,3.0095,3.0158,3.0105,3.0105,3.0105,3.0104,0,2.9777,2.9805,2.9822,2.9842,2.9875,2.9884,2.9916,2.9929,2.9949,2.9974,2.9977,3.0,3.0014,3.004,3.005,3.0088,3.0094,3.0103,3.0105,3.0103,3.0102,3.0113,3.0111,3.0106,3.0106,3.0106,3.0105,0,2.9808,2.9821,2.9857,2.9882,2.9889,2.9912,2.9935,2.9956,2.9968,2.9999,3.0008,3.0027,3.0059,3.0073,3.0112,3.0119,3.0163,3.0162,3.0155,3.0156,3.0181,3.0179,3.0253,3.0265,3.0203,3.0204,3.0204,0,2.9832,2.9853,2.9882,2.9899,2.9912,2.9938,2.9956,2.9968,2.9987,3.0017,3.0036,3.0068,3.0094,3.0146,3.0164,3.0196,3.0197,3.0221,3.0201,3.02,3.02,3.0199,3.0203,3.0225,3.0225,3.0226,3.0226,0,2.9874,2.9881,2.9905,2.9934,2.9955,2.9978,3.0001,3.0015,3.0031,3.0053,3.0085,3.0106,3.0148,3.0181,3.0214,3.023,3.0232,3.0233,3.024,3.0238,3.0234,3.0239,3.0166,3.023,3.023,3.023,3.0229,3.0229,2.9904,2.9924,2.9948,2.9977,2.9996,3.0019,3.0041,3.0057,3.0084,3.0118,3.0125,3.0161,3.0188,3.0233,3.0251,3.0281,3.0275,3.0286,3.0289,3.0291,3.0294,3.0229,3.0287,3.0287,3.0287,3.0287,3.0287,0,2.9947,2.9964,2.9991,3.0023,3.0047,3.0047,3.0074,3.0094,3.0126,3.0151,3.0177,3.0218,3.0251,3.0274,3.0309,3.0329,3.0332,3.0338,3.0337,3.0342,3.0296,3.0287,3.0336,3.0336,3.0336,3.0336,3.0336,3.0336,2.9973,3.0009,3.0019,3.0066,3.0083,3.0118,3.0134,3.0156,3.0176,3.0221,3.0249,3.0264,3.029,3.0327,3.0359,3.0366,3.0379,3.0386,3.0393,3.0349,3.0344,3.0339,3.0331,3.0389,3.0389,3.0436,3.0437,3.0437]},{"header":{"parameterUnit":"m.s-1","parameterCategory":1,"la1":30.2991,"la2":30.254,"lo1":-89.0895,"lo2":-89.0444,"dy":0.0017,"dx":0.0017,"nx":28,"ny":28,"refTime":"2023-03-31T21:00:00:Z","depth":0,"parameterNumber":3,"parameterNumberName":"V-component_of_WINDS"},"data":[0,0,0,0,0,0,0,0,0,0,0,0,0,0,0,0,0,0,0,0,0,0,0,0,0,0,0,0,0,0,0,0,0,0,0,0,0,0,0,0,0,0,0,0,0,0,0,0,0,0,0,0,0,0,0,0,0,0,2.0152,2.0154,0,2.0366,2.0368,2.037,2.038,2.0377,2.0375,2.0372,2.0594,2.0602,2.061,0,0,0,0,0,0,0,0,0,0,0,0,0,1.9751,1.9758,2.0151,2.0154,2.0157,2.0365,2.0368,2.0371,2.038,2.0377,2.0374,2.0371,2.0591,2.0601,2.0611,0,0,0,0,0,0,0,0,0,0,0,0,0,1.9941,1.9761,2.0151,2.0186,2.0192,2.0365,2.0368,2.0372,2.0381,2.0377,2.0373,2.037,2.0588,2.06,2.0612,2.0765,0,0,2.065,2.0655,0,0,0,0,0,0,0,0,1.993,1.9956,2.0179,2.0184,2.019,2.0342,2.0308,2.0504,2.0382,2.0309,2.0372,2.0368,2.0513,2.0532,2.058,2.0775,2.0785,2.0651,2.0659,2.0664,2.0667,0,0,0,0,0,0,0,1.9917,1.9947,2.0236,2.0182,2.0189,2.0192,2.0214,2.0345,2.043,2.0315,2.0316,2.0341,2.0516,2.0568,2.0585,2.0788,2.0651,2.0662,2.0669,2.0674,2.1117,2.1121,0,0,0,0,0,0,1.9897,1.9936,2.0229,2.0243,2.0048,2.0202,2.0227,2.0297,2.0429,2.0445,2.0344,2.0341,2.0549,2.0571,2.0593,2.0779,2.0664,2.0675,2.0683,2.1112,2.1117,2.1122,0,0,0,0,0,0,1.9888,1.9923,2.0221,2.009,2.0128,2.0213,2.0291,2.0303,2.0356,2.0451,2.0466,2.0382,2.0547,2.0576,2.0721,2.0787,2.0681,2.0692,2.1107,2.1114,2.112,2.1153,0,0,0,0,0,0,1.9877,1.992,1.9979,2.0091,2.0135,2.0345,2.0295,2.031,2.0377,2.0374,2.049,2.0506,2.0546,2.0703,2.0734,2.0802,2.0702,2.1102,2.111,2.1118,2.1146,2.116,2.1171,0,0,0,0,0,1.9862,1.9981,1.9982,2.0017,2.021,2.0349,2.0374,2.0417,2.0382,2.0442,2.0502,2.0502,2.0775,2.0718,2.0753,2.0826,2.1098,2.1108,2.1117,2.1141,2.1157,2.1171,0,0,0,0,0,0,1.9876,1.9996,1.9999,2.0157,2.0242,2.035,2.0427,2.0434,2.0532,2.0526,2.0576,2.0602,2.0746,2.08,2.0735,2.0979,2.0932,2.0949,2.0938,2.0954,2.0967,2.095,2.0712,0,0,0,0,0,1.9897,1.9999,2.0099,2.0229,2.0271,2.0342,2.0404,2.043,2.0521,2.0558,2.0629,2.0718,2.0823,2.0892,2.0994,2.1154,2.1179,2.1221,2.1234,2.1243,2.1258,2.1344,2.1364,2.1154,2.1154,2.1154,0,0,1.9942,2.002,2.0082,2.0233,2.0303,2.0408,2.0373,2.0486,2.0564,2.0575,2.0716,2.0771,2.0874,2.1026,2.1097,2.1077,2.1321,2.1256,2.1263,2.1272,2.1356,2.1376,2.1393,2.1161,2.1159,2.1158,0,0,2.0077,2.0147,2.0262,2.0332,2.0437,2.0482,2.051,2.0617,2.0653,2.0796,2.0805,2.0899,2.108,2.1152,2.1213,2.1372,2.1375,2.1404,2.1469,2.1553,2.1569,2.1584,2.164,2.166,2.1418,2.1418,2.1418,0,2.012,2.0278,2.032,2.0433,2.0499,2.0512,2.0628,2.0694,2.0827,2.0872,2.0847,2.1072,2.1143,2.1311,2.135,2.1399,2.1431,2.1392,2.1563,2.1579,2.1593,2.1647,2.1668,2.1421,2.1421,2.142,2.142,0,2.0325,2.0434,2.0515,2.0641,2.0716,2.083,2.0889,2.0959,2.0978,2.1026,2.1169,2.1254,2.1372,2.1414,2.1434,2.1585,2.1569,2.1553,2.1507,2.1615,2.1667,2.1688,2.1425,2.1424,2.1423,2.1423,0,0,2.0476,2.0623,2.0652,2.0708,2.0824,2.091,2.1023,2.1138,2.1197,2.1288,2.1384,2.1536,2.1521,2.1589,2.1617,2.1691,2.181,2.1666,2.1669,2.1689,2.198,2.1991,2.2014,2.1812,2.1816,2.1819,2.1971,0,2.0623,2.0825,2.0866,2.1041,2.1141,2.1154,2.1253,2.1335,2.1382,2.1475,2.1527,2.1633,2.1606,2.1647,2.1721,2.178,2.1869,2.1769,2.1902,2.1906,2.1875,2.2041,2.2054,2.2193,2.1991,2.1995,2.1997,0,2.0823,2.0917,2.1101,2.1202,2.1245,2.1334,2.1441,2.1529,2.1621,2.1651,2.1725,2.1745,2.1863,2.181,2.1973,2.1904,2.1961,2.1997,2.2004,2.2018,2.1958,2.2059,2.2238,2.2259,2.203,2.2027,2.2025,0,2.0913,2.1086,2.1218,2.1267,2.1387,2.1448,2.1502,2.159,2.1656,2.175,2.1793,2.1899,2.1958,2.204,2.2087,2.2045,2.2245,2.2198,2.2273,2.2271,2.2315,2.2311,2.2505,2.2352,2.2351,2.2351,2.235,0,2.1073,2.1185,2.126,2.1341,2.1467,2.1512,2.1635,2.1687,2.1765,2.1857,2.1875,2.1961,2.2018,2.2111,2.2149,2.2277,2.2304,2.233,2.2339,2.2329,2.2325,2.2366,2.2358,2.2356,2.2355,2.2354,2.2353,0,2.1195,2.1249,2.1394,2.1496,2.1524,2.1612,2.1699,2.1778,2.1825,2.194,2.197,2.2044,2.2154,2.2209,2.2347,2.2372,2.2517,2.252,2.2486,2.2489,2.2561,2.2553,2.2787,2.282,2.2645,2.2647,2.2648,0,2.1293,2.1379,2.1489,2.1551,2.1605,2.1706,2.1772,2.1819,2.1888,2.1998,2.2064,2.2175,2.2266,2.2442,2.2508,2.2614,2.2619,2.2694,2.2635,2.2621,2.2619,2.2613,2.2621,2.2704,2.2706,2.2707,2.2708,0,2.1461,2.1483,2.1578,2.1682,2.1761,2.1846,2.1929,2.1979,2.2039,2.2115,2.2228,2.2299,2.2438,2.2548,2.2658,2.2712,2.2721,2.2726,2.2749,2.2739,2.2715,2.2728,2.2514,2.2721,2.2719,2.2718,2.2718,2.2717,2.1574,2.165,2.1739,2.1844,2.1911,2.1988,2.2067,2.2122,2.2217,2.2334,2.2356,2.2475,2.2563,2.2711,2.2769,2.2863,2.2846,2.288,2.2888,2.2895,2.2898,2.27,2.2883,2.2883,2.2882,2.2882,2.2882,0,2.1741,2.1799,2.1895,2.201,2.2092,2.2091,2.2183,2.2251,2.2356,2.2437,2.2526,2.2655,2.2761,2.2834,2.2942,2.3003,2.3009,2.3029,2.3025,2.3037,2.2908,2.2877,2.3022,2.3022,2.3022,2.3022,2.3022,2.3022,2.1838,2.1967,2.2,2.2162,2.2219,2.2335,2.2387,2.2458,2.2523,2.2665,2.2753,2.28,2.2878,2.2991,2.3088,2.3107,2.3145,2.3166,2.3184,2.3062,2.3047,2.3033,2.3004,2.3174,2.3174,2.3306,2.3308,2.3308]}]]